Time,TemperatureF,DewpointF,PressureIn,WindDirection,WindDirectionDegrees,WindSpeedMPH,WindSpeedGustMPH,Humidity,HourlyPrecipIn,Conditions,Clouds,dailyrainin,SoftwareType,DateUTC
2013-07-30 13:00:00,66.9,59.5,30.07,SSE,158,4.0,12.0,77,0.00,,---,0.00,VWS V14.00,2013-07-30 18:00:00,
2013-07-30 13:17:00,66.9,59.5,30.07,SSE,158,4.0,12.0,77,0.00,,---,0.00,VWS V14.00,2013-07-30 18:17:00,
2013-07-30 13:18:00,66.7,59.6,30.06,South,186,2.0,4.0,78,0.00,,---,0.00,VWS V14.00,2013-07-30 18:18:00,
2013-07-30 13:23:00,66.7,59.6,30.06,SW,215,0.0,5.0,78,0.00,,---,0.00,VWS V14.00,2013-07-30 18:23:00,
2013-07-30 13:28:00,67.0,60.3,30.06,SE,134,5.0,6.0,79,0.00,,---,0.00,VWS V14.00,2013-07-30 18:28:00,
2013-07-30 13:33:00,67.3,60.2,30.06,SSW,212,1.0,7.0,78,0.00,,---,0.00,VWS V14.00,2013-07-30 18:33:00,
2013-07-30 13:38:00,67.4,60.0,30.06,SW,231,0.0,8.0,77,0.00,,---,0.00,VWS V14.00,2013-07-30 18:38:00,
2013-07-30 13:43:00,67.3,60.6,30.05,South,186,1.0,8.0,79,0.00,,---,0.00,VWS V14.00,2013-07-30 18:43:00,
2013-07-30 13:48:00,67.4,60.0,30.05,South,188,4.0,8.0,77,0.00,,---,0.00,VWS V14.00,2013-07-30 18:48:00,
2013-07-30 13:53:00,67.5,60.4,30.05,South,190,0.0,6.0,78,0.00,,---,0.00,VWS V14.00,2013-07-30 18:53:00,
2013-07-30 13:58:00,68.0,60.5,30.05,South,174,1.0,6.0,77,0.00,,---,0.00,VWS V14.00,2013-07-30 18:58:00,
2013-07-30 14:03:00,68.0,60.2,30.05,SSE,148,3.0,6.0,76,0.00,,---,0.00,VWS V14.00,2013-07-30 19:03:00,
2013-07-30 14:08:00,67.8,60.3,30.05,SSE,159,3.0,7.0,77,0.00,,---,0.00,VWS V14.00,2013-07-30 19:08:00,
2013-07-30 14:13:00,67.8,60.7,30.05,SE,126,1.0,7.0,78,0.00,,---,0.00,VWS V14.00,2013-07-30 19:13:00,
2013-07-30 14:18:00,68.3,60.1,30.05,SSW,198,0.0,8.0,75,0.00,,---,0.00,VWS V14.00,2013-07-30 19:18:00,
2013-07-30 14:23:00,68.2,60.0,30.05,SSE,151,3.0,9.0,75,0.00,,---,0.00,VWS V14.00,2013-07-30 19:23:00,
2013-07-30 14:28:00,67.9,59.7,30.05,SW,225,6.0,9.0,75,0.00,,---,0.00,VWS V14.00,2013-07-30 19:28:00,
2013-07-30 14:33:00,67.8,60.0,30.05,SSE,155,2.0,9.0,76,0.00,,---,0.00,VWS V14.00,2013-07-30 19:33:00,
2013-07-30 14:38:00,67.8,59.6,30.05,SSW,194,3.0,7.0,75,0.00,,---,0.00,VWS V14.00,2013-07-30 19:38:00,
2013-07-30 14:43:00,67.7,59.5,30.04,South,175,2.0,7.0,75,0.00,,---,0.00,VWS V14.00,2013-07-30 19:43:00,
2013-07-30 14:48:00,67.7,59.1,30.05,WSW,252,4.0,7.0,74,0.00,,---,0.00,VWS V14.00,2013-07-30 19:48:00,
2013-07-30 14:53:00,67.6,59.0,30.04,SSE,156,0.0,8.0,74,0.00,,---,0.00,VWS V14.00,2013-07-30 19:53:00,
2013-07-30 14:58:00,67.7,59.5,30.04,SSE,150,4.0,8.0,75,0.00,,---,0.00,VWS V14.00,2013-07-30 19:58:00,
2013-07-30 15:03:00,67.7,59.5,30.05,SSE,153,9.0,9.0,75,0.00,,---,0.00,VWS V14.00,2013-07-30 20:03:00,
2013-07-30 15:08:00,67.6,60.1,30.05,WSW,244,2.0,6.0,77,0.00,,---,0.00,VWS V14.00,2013-07-30 20:08:00,
2013-07-30 15:13:00,67.6,59.4,30.04,ESE,115,3.0,6.0,75,0.00,,---,0.00,VWS V14.00,2013-07-30 20:13:00,
2013-07-30 15:18:00,67.7,59.1,30.04,WSW,244,2.0,8.0,74,0.00,,---,0.00,VWS V14.00,2013-07-30 20:18:00,
2013-07-30 15:23:00,67.8,59.6,30.04,SE,140,3.0,5.0,75,0.00,,---,0.00,VWS V14.00,2013-07-30 20:23:00,
2013-07-30 15:28:00,67.9,59.7,30.04,SE,138,2.0,5.0,75,0.00,,---,0.00,VWS V14.00,2013-07-30 20:28:00,
2013-07-30 15:33:00,68.0,59.8,30.04,SSE,155,1.0,6.0,75,0.00,,---,0.00,VWS V14.00,2013-07-30 20:33:00,
2013-07-30 15:38:00,67.9,59.3,30.04,WSW,251,0.0,7.0,74,0.00,,---,0.00,VWS V14.00,2013-07-30 20:38:00,
2013-07-30 15:43:00,67.9,59.7,30.04,SE,139,3.0,7.0,75,0.00,,---,0.00,VWS V14.00,2013-07-30 20:43:00,
2013-07-30 15:48:00,67.7,59.5,30.04,South,171,0.0,9.0,75,0.00,,---,0.00,VWS V14.00,2013-07-30 20:48:00,
2013-07-30 15:53:00,67.8,60.0,30.04,SSE,155,0.0,7.0,76,0.00,,---,0.00,VWS V14.00,2013-07-30 20:53:00,
2013-07-30 15:58:00,67.9,60.1,30.04,ESE,106,0.0,7.0,76,0.00,,---,0.00,VWS V14.00,2013-07-30 20:58:00,
2013-07-30 16:03:00,68.0,60.2,30.04,SSE,153,3.0,7.0,76,0.00,,---,0.00,VWS V14.00,2013-07-30 21:03:00,
2013-07-30 16:08:00,68.0,60.2,30.04,SE,138,0.0,6.0,76,0.00,,---,0.00,VWS V14.00,2013-07-30 21:08:00,
2013-07-30 16:13:00,68.0,59.8,30.04,SSE,150,0.0,6.0,75,0.00,,---,0.00,VWS V14.00,2013-07-30 21:13:00,
2013-07-30 16:18:00,68.0,59.8,30.04,South,182,0.0,6.0,75,0.00,,---,0.00,VWS V14.00,2013-07-30 21:18:00,
2013-07-30 16:23:00,68.2,60.3,30.04,SE,146,4.0,6.0,76,0.00,,---,0.00,VWS V14.00,2013-07-30 21:23:00,
2013-07-30 16:28:00,68.2,60.3,30.04,SSE,164,2.0,6.0,76,0.00,,---,0.00,VWS V14.00,2013-07-30 21:28:00,
2013-07-30 16:33:00,68.3,60.5,30.04,SE,133,3.0,10.0,76,0.00,,---,0.00,VWS V14.00,2013-07-30 21:33:00,
2013-07-30 16:38:00,68.2,60.0,30.03,SSE,148,5.0,7.0,75,0.00,,---,0.00,VWS V14.00,2013-07-30 21:38:00,
2013-07-30 16:43:00,68.0,59.8,30.03,South,175,0.0,7.0,75,0.00,,---,0.00,VWS V14.00,2013-07-30 21:43:00,
2013-07-30 16:48:00,67.9,60.1,30.04,South,186,4.0,10.0,76,0.00,,---,0.00,VWS V14.00,2013-07-30 21:48:00,
2013-07-30 16:53:00,67.7,60.2,30.04,SSW,202,0.0,4.0,77,0.00,,---,0.00,VWS V14.00,2013-07-30 21:53:00,
2013-07-30 16:58:00,67.6,59.8,30.04,South,191,0.0,4.0,76,0.00,,---,0.00,VWS V14.00,2013-07-30 21:58:00,
2013-07-30 17:03:00,67.5,59.7,30.03,WSW,244,4.0,6.0,76,0.00,,---,0.00,VWS V14.00,2013-07-30 22:03:00,
2013-07-30 17:08:00,67.4,60.0,30.04,SSW,193,1.0,4.0,77,0.00,,---,0.00,VWS V14.00,2013-07-30 22:08:00,
2013-07-30 17:12:00,67.4,60.0,30.03,SSW,211,3.0,6.0,77,0.00,,---,0.00,VWS V14.00,2013-07-30 22:12:00,
2013-07-30 17:17:00,67.2,60.1,30.04,WSW,242,0.0,7.0,78,0.00,,---,0.00,VWS V14.00,2013-07-30 22:17:00,
2013-07-30 17:22:00,67.2,60.1,30.04,South,170,0.0,3.0,78,0.00,,---,0.00,VWS V14.00,2013-07-30 22:22:00,
2013-07-30 17:27:00,67.1,60.0,30.03,SSE,162,0.0,4.0,78,0.00,,---,0.00,VWS V14.00,2013-07-30 22:27:00,
2013-07-30 17:32:00,67.0,60.3,30.03,South,177,0.0,4.0,79,0.00,,---,0.00,VWS V14.00,2013-07-30 22:32:00,
2013-07-30 17:37:00,67.0,60.3,30.03,SSE,167,0.0,0.0,79,0.00,,---,0.00,VWS V14.00,2013-07-30 22:37:00,
2013-07-30 17:42:00,66.9,60.2,30.03,WSW,256,0.0,5.0,79,0.00,,---,0.00,VWS V14.00,2013-07-30 22:42:00,
2013-07-30 17:47:00,66.7,60.0,30.03,WSW,252,4.0,5.0,79,0.00,,---,0.00,VWS V14.00,2013-07-30 22:47:00,
2013-07-30 17:52:00,66.6,59.9,30.03,South,174,0.0,3.0,79,0.00,,---,0.00,VWS V14.00,2013-07-30 22:52:00,
2013-07-30 17:57:00,66.4,59.7,30.03,WSW,242,0.0,3.0,79,0.00,,---,0.00,VWS V14.00,2013-07-30 22:57:00,
2013-07-30 18:02:00,66.3,60.0,30.03,South,184,2.0,9.0,80,0.00,,---,0.00,VWS V14.00,2013-07-30 23:02:00,
2013-07-30 18:07:00,66.1,60.1,30.03,WSW,239,2.0,5.0,81,0.00,,---,0.00,VWS V14.00,2013-07-30 23:07:00,
2013-07-30 18:13:00,65.9,60.3,30.03,SSW,199,0.0,5.0,82,0.00,,---,0.00,VWS V14.00,2013-07-30 23:13:00,
2013-07-30 18:18:00,65.7,60.4,30.03,SSW,202,0.0,6.0,83,0.00,,---,0.00,VWS V14.00,2013-07-30 23:18:00,
2013-07-30 18:23:00,65.6,60.3,30.03,SSW,202,0.0,1.0,83,0.00,,---,0.00,VWS V14.00,2013-07-30 23:23:00,
2013-07-30 18:28:00,65.5,60.2,30.02,South,171,1.0,3.0,83,0.00,,---,0.00,VWS V14.00,2013-07-30 23:28:00,
2013-07-30 18:33:00,65.4,60.5,30.02,South,177,1.0,3.0,84,0.00,,---,0.00,VWS V14.00,2013-07-30 23:33:00,
2013-07-30 18:38:00,65.4,60.5,30.02,SSE,162,0.0,3.0,84,0.00,,---,0.00,VWS V14.00,2013-07-30 23:38:00,
2013-07-30 18:43:00,65.4,60.5,30.02,SSE,168,1.0,3.0,84,0.00,,---,0.00,VWS V14.00,2013-07-30 23:43:00,
2013-07-30 18:47:00,65.4,60.1,30.02,SE,132,0.0,3.0,83,0.00,,---,0.00,VWS V14.00,2013-07-30 23:47:00,
2013-07-30 18:52:00,65.5,60.5,30.02,South,179,0.0,4.0,84,0.00,,---,0.00,VWS V14.00,2013-07-30 23:52:00,
2013-07-30 18:57:00,65.6,60.3,30.02,South,190,0.0,4.0,83,0.00,,---,0.00,VWS V14.00,2013-07-30 23:57:00,
2013-07-30 19:02:00,65.6,60.6,30.02,SSE,161,0.0,4.0,84,0.00,,---,0.00,VWS V14.00,2013-07-31 00:02:00,
2013-07-30 19:07:00,65.5,60.2,30.02,South,182,0.0,3.0,83,0.00,,---,0.00,VWS V14.00,2013-07-31 00:07:00,
2013-07-30 19:13:00,65.5,60.5,30.02,South,182,0.0,3.0,84,0.00,,---,0.00,VWS V14.00,2013-07-31 00:13:00,
2013-07-30 19:18:00,65.4,60.5,30.02,SSW,208,0.0,0.0,84,0.00,,---,0.00,VWS V14.00,2013-07-31 00:18:00,
2013-07-30 19:23:00,65.4,60.5,30.02,South,178,0.0,3.0,84,0.00,,---,0.00,VWS V14.00,2013-07-31 00:23:00,
2013-07-30 19:28:00,65.2,60.6,30.02,South,178,0.0,3.0,85,0.00,,---,0.00,VWS V14.00,2013-07-31 00:28:00,
2013-07-30 19:33:00,65.2,60.2,30.02,SE,144,0.0,0.0,84,0.00,,---,0.00,VWS V14.00,2013-07-31 00:33:00,
2013-07-30 19:38:00,65.1,60.5,30.02,SE,144,0.0,1.0,85,0.00,,---,0.00,VWS V14.00,2013-07-31 00:38:00,
2013-07-30 19:43:00,65.0,60.4,30.02,SE,144,0.0,1.0,85,0.00,,---,0.00,VWS V14.00,2013-07-31 00:43:00,
2013-07-30 19:48:00,64.9,60.3,30.02,SE,144,0.0,0.0,85,0.00,,---,0.00,VWS V14.00,2013-07-31 00:48:00,
2013-07-30 19:53:00,64.8,60.5,30.02,SE,144,0.0,0.0,86,0.00,,---,0.00,VWS V14.00,2013-07-31 00:53:00,
2013-07-30 19:58:00,64.7,60.4,30.02,SE,144,0.0,1.0,86,0.00,,---,0.00,VWS V14.00,2013-07-31 00:58:00,
2013-07-30 20:03:00,64.7,60.4,30.02,SE,144,0.0,0.0,86,0.00,,---,0.00,VWS V14.00,2013-07-31 01:03:00,
2013-07-30 20:08:00,64.5,60.2,30.02,SE,145,1.0,2.0,86,0.00,,---,0.00,VWS V14.00,2013-07-31 01:08:00,
2013-07-30 20:13:00,64.5,60.5,30.02,WSW,248,1.0,2.0,87,0.00,,---,0.00,VWS V14.00,2013-07-31 01:13:00,
2013-07-30 20:18:00,64.3,60.3,30.02,SSW,198,2.0,2.0,87,0.00,,---,0.00,VWS V14.00,2013-07-31 01:18:00,
2013-07-30 20:23:00,64.1,60.5,30.02,SSE,153,0.0,2.0,88,0.00,,---,0.00,VWS V14.00,2013-07-31 01:23:00,
2013-07-30 20:28:00,63.9,60.6,30.02,South,185,0.0,2.0,89,0.00,,---,0.00,VWS V14.00,2013-07-31 01:28:00,
2013-07-30 20:33:00,63.6,60.3,30.02,South,182,0.0,2.0,89,0.00,,---,0.00,VWS V14.00,2013-07-31 01:33:00,
2013-07-30 20:38:00,63.4,60.4,30.03,South,182,0.0,1.0,90,0.00,,---,0.00,VWS V14.00,2013-07-31 01:38:00,
2013-07-30 20:43:00,63.2,60.2,30.03,SSW,205,0.0,3.0,90,0.00,,---,0.00,VWS V14.00,2013-07-31 01:43:00,
2013-07-30 20:48:00,63.0,60.3,30.03,SSW,205,1.0,3.0,91,0.00,,---,0.00,VWS V14.00,2013-07-31 01:48:00,
2013-07-30 20:53:00,62.8,60.5,30.03,SSW,205,0.0,1.0,92,0.00,,---,0.00,VWS V14.00,2013-07-31 01:53:00,
2013-07-30 20:58:00,62.6,60.2,30.03,SSW,205,0.0,1.0,92,0.00,,---,0.00,VWS V14.00,2013-07-31 01:58:00,
2013-07-30 21:03:00,62.5,60.5,30.03,SSW,205,0.0,1.0,93,0.00,,---,0.00,VWS V14.00,2013-07-31 02:03:00,
2013-07-30 21:08:00,62.3,60.2,30.03,SSW,205,0.0,0.0,93,0.00,,---,0.00,VWS V14.00,2013-07-31 02:08:00,
2013-07-30 21:13:00,62.3,60.6,30.03,SSW,205,0.0,0.0,94,0.00,,---,0.00,VWS V14.00,2013-07-31 02:13:00,
2013-07-30 21:18:00,62.2,60.5,30.03,SSW,205,0.0,0.0,94,0.00,,---,0.00,VWS V14.00,2013-07-31 02:18:00,
2013-07-30 21:23:00,62.2,60.5,30.03,SSW,205,0.0,0.0,94,0.00,,---,0.00,VWS V14.00,2013-07-31 02:23:00,
2013-07-30 21:28:00,62.1,60.7,30.03,SSW,205,0.0,0.0,95,0.00,,---,0.00,VWS V14.00,2013-07-31 02:28:00,
2013-07-30 21:33:00,62.0,60.6,30.03,SSW,205,0.0,0.0,95,0.00,,---,0.00,VWS V14.00,2013-07-31 02:33:00,
2013-07-30 21:38:00,62.0,60.6,30.03,SSW,205,0.0,0.0,95,0.00,,---,0.00,VWS V14.00,2013-07-31 02:38:00,
2013-07-30 21:43:00,61.9,60.5,30.03,SSW,205,0.0,0.0,95,0.00,,---,0.00,VWS V14.00,2013-07-31 02:43:00,
2013-07-30 21:48:00,61.9,60.5,30.03,SSW,205,0.0,0.0,95,0.00,,---,0.00,VWS V14.00,2013-07-31 02:48:00,
2013-07-30 21:53:00,61.8,60.4,30.03,SSW,205,0.0,0.0,95,0.00,,---,0.00,VWS V14.00,2013-07-31 02:53:00,
2013-07-30 21:58:00,61.8,60.7,30.03,SSW,205,0.0,0.0,96,0.00,,---,0.00,VWS V14.00,2013-07-31 02:58:00,
2013-07-30 22:03:00,61.8,60.7,30.03,SSW,205,0.0,0.0,96,0.00,,---,0.00,VWS V14.00,2013-07-31 03:03:00,
2013-07-30 22:08:00,61.8,60.7,30.03,SSW,205,0.0,0.0,96,0.00,,---,0.00,VWS V14.00,2013-07-31 03:08:00,
2013-07-30 22:13:00,61.8,60.7,30.03,SSW,205,0.0,0.0,96,0.00,,---,0.00,VWS V14.00,2013-07-31 03:13:00,
2013-07-30 22:18:00,61.8,60.7,30.03,SSW,206,0.0,0.0,96,0.00,,---,0.00,VWS V14.00,2013-07-31 03:18:00,
2013-07-30 22:23:00,61.8,60.7,30.03,SSW,206,0.0,1.0,96,0.00,,---,0.00,VWS V14.00,2013-07-31 03:23:00,
2013-07-30 22:28:00,61.8,60.7,30.03,SSW,206,0.0,1.0,96,0.00,,---,0.00,VWS V14.00,2013-07-31 03:28:00,
2013-07-30 22:33:00,61.8,60.7,30.02,SSW,206,0.0,1.0,96,0.00,,---,0.00,VWS V14.00,2013-07-31 03:33:00,
2013-07-30 22:38:00,61.8,60.7,30.02,SSW,206,0.0,0.0,96,0.00,,---,0.00,VWS V14.00,2013-07-31 03:38:00,
2013-07-30 22:43:00,61.8,60.9,30.03,SSW,206,0.0,0.0,97,0.00,,---,0.00,VWS V14.00,2013-07-31 03:43:00,
2013-07-30 22:48:00,61.8,60.9,30.02,SSW,206,0.0,1.0,97,0.00,,---,0.00,VWS V14.00,2013-07-31 03:48:00,
2013-07-30 22:53:00,61.8,60.9,30.02,SSW,206,0.0,0.0,97,0.00,,---,0.00,VWS V14.00,2013-07-31 03:53:00,
2013-07-30 22:58:00,61.8,60.7,30.03,SSW,206,0.0,0.0,96,0.00,,---,0.00,VWS V14.00,2013-07-31 03:58:00,
2013-07-30 23:01:00,61.8,60.7,30.03,SSW,206,0.0,0.0,96,0.00,,---,0.00,VWS V14.00,2013-07-31 04:01:00,
2013-07-30 23:02:00,61.8,60.7,30.03,SSW,206,0.0,0.0,96,0.00,,---,0.00,VWS V14.00,2013-07-31 04:02:00,
2013-07-30 23:07:00,61.8,60.9,30.02,SSW,206,0.0,0.0,97,0.00,,---,0.00,VWS V14.00,2013-07-31 04:07:00,
2013-07-30 23:12:00,61.8,60.9,30.02,SSW,206,0.0,0.0,97,0.00,,---,0.00,VWS V14.00,2013-07-31 04:12:00,
2013-07-30 23:17:00,61.7,60.8,30.02,SSW,206,0.0,0.0,97,0.00,,---,0.00,VWS V14.00,2013-07-31 04:17:00,
2013-07-30 23:22:00,61.8,60.9,30.02,SSW,206,0.0,0.0,97,0.00,,---,0.00,VWS V14.00,2013-07-31 04:22:00,
2013-07-30 23:27:00,61.8,60.9,30.02,SSW,206,0.0,0.0,97,0.00,,---,0.00,VWS V14.00,2013-07-31 04:27:00,
2013-07-30 23:32:00,61.8,60.9,30.02,SSW,206,0.0,0.0,97,0.00,,---,0.00,VWS V14.00,2013-07-31 04:32:00,
2013-07-30 23:37:00,61.8,60.9,30.01,SSW,206,0.0,0.0,97,0.00,,---,0.00,VWS V14.00,2013-07-31 04:37:00,
2013-07-30 23:42:00,61.8,60.9,30.02,SSW,206,0.0,0.0,97,0.00,,---,0.00,VWS V14.00,2013-07-31 04:42:00,
2013-07-30 23:47:00,61.8,60.9,30.02,SSW,206,0.0,0.0,97,0.00,,---,0.00,VWS V14.00,2013-07-31 04:47:00,
2013-07-30 23:52:00,61.8,60.9,30.02,SSW,206,0.0,0.0,97,0.00,,---,0.00,VWS V14.00,2013-07-31 04:52:00,
2013-07-30 23:57:00,61.8,60.9,30.02,SSW,206,0.0,0.0,97,0.00,,---,0.00,VWS V14.00,2013-07-31 04:57:00,